Location: Burbank
(38.7788°N, 114.0429°W)
Time: 23:16:32
(UTC+00:00)

S-56A Canister/Altair - Pass Details

Date: 17 May 2026
Orbit: 633 x 2484 km, 38.9° (Epoch: 1 June)

Event Time Altitude Azimuth Distance (km) Brightness Sun altitude
Rises 07:15:50 0° 280° (W) 2,936 10.7 -31.7°
Enters shadow 07:16:43 - 279° (W) 2,583 10.4 -31.7°
Reaches altitude 10° 07:17:59 10° 277° (W) 2,078 - -31.8°
Maximum altitude 07:22:34 65° 196° (SSW) 835 - -31.8°
Drops below altitude 10° 07:28:37 10° 116° (ESE) 2,715 - -31.9°
Sets 07:31:47 0° 114° (ESE) 3,932 - -31.9°
